Torna al catalogo

IRIDIUM 163

AttivoComunicazioniPO
NORAD 43575·PAYLOAD·🇺🇸 United States

Lanciato Jul 25, 2018 da Vandenberg Space Force Base

Loading…

Prossimi Passaggi (prossime 24 ore)

TLE

AggiornatoSource: CelesTrak SupGP

Epoca: Sep 14, 2026, 21:32 UTC

1 43575C 18061G   26257.89756944 -.00000708  00000+0 -25324-3 0  2576
2 43575  86.4011  19.2004 0002247  96.2979  71.2736 14.34219213    16

Traccia IRIDIUM 163 in tempo reale con AllMySat

Download on the App Store